Weather History for Clinton-Sherman, OK

Change the Weather History Date:

Friday, June 6, 2014

  Actual Average Record
Temperature  
Mean Temperature 78 °F -  
Max Temperature 90 °F 84 °F 100 °F (2006)
Min Temperature 66 °F 62 °F 45 °F (1998)
Cooling Degree Days 12    
Growing Degree Days 28 (Base 50)    
Moisture  
Dew Point 65 °F    
Average Humidity 70    
Maximum Humidity 94    
Minimum Humidity 47    
Precipitation  
Precipitation 0.79 in - - ()
Sea Level Pressure  
Sea Level Pressure 29.85 in    
Wind  
Wind Speed 13 mph (East)    
Max Wind Speed 38 mph    
Max Gust Speed 52 mph    
Visibility 8 miles    
Events Fog , Rain , Thunderstorm    
Averages and records for this station are not official NWS values.
T = Trace of Precipitation, MM = Missing Value Source: NWS Daily Summary

Daily Weather History Graph

Daily Weather History Graph

Search for Another Location

Airport:

Trip Planner

Search our weather history database for the weather conditions in past years. The results will help you decide how hot, cold, wet, or windy it might be!

Date:

Astronomy

Jun. 06, 2014 Rise Set
Actual Time 6:21 AM CDT 8:49 PM CDT
Civil Twilight 5:52 AM CDT 9:18 PM CDT
Nautical Twilight 5:15 AM CDT 9:55 PM CDT
Astronomical Twilight 4:35 AM CDT 10:35 PM CDT
Moon 2:23 PM CDT (6/6) 2:00 AM CDT (6/6)
Length of Visible Light 15h 26m
Length of Day
14h 27m
First Quarter, 58% of the Moon is Illuminated
Jun 6
First Quarter
Jun 12
Full
Jun 19
Last Quarter
Jun 27
New
Jul 5
First Quarter

Hourly Weather History & Observations

Time (CDT) Temp. Heat Index Dew Point Humidity Pressure Visibility Wind Dir Wind Speed Gust Speed Precip Events Conditions
12:53 AM 77.0 °F - 68.0 °F 74% 29.78 in 10.0 mi NE 5.8 mph - N/A   Clear
1:53 AM 77.0 °F - 68.0 °F 74% 29.76 in 10.0 mi ENE 10.4 mph - N/A   Clear
2:53 AM 75.9 °F - 68.0 °F 76% 29.79 in 10.0 mi ENE 6.9 mph - N/A   Partly Cloudy
3:51 AM 75.2 °F - 69.8 °F 83% 29.87 in 10.0 mi East 10.4 mph - N/A Thunderstorm Thunderstorm
3:53 AM 75.9 °F - 69.1 °F 79% 29.78 in 10.0 mi East 9.2 mph - N/A Thunderstorm Thunderstorm
4:53 AM 69.1 °F - 62.1 °F 78% 29.80 in 4.0 mi ENE 13.8 mph 21.9 mph 0.18 in Rain , Thunderstorm Heavy Thunderstorms and Rain
5:53 AM 72.0 °F - 61.0 °F 68% 29.84 in 10.0 mi NW 13.8 mph 26.5 mph 0.02 in Rain , Thunderstorm Light Rain
6:00 AM 71.6 °F - 60.8 °F 69% 29.92 in 10.0 mi North 13.8 mph - 0.00 in Rain Light Rain
6:13 AM 73.4 °F - 57.2 °F 57% 29.83 in 10.0 mi NNE 18.4 mph - 0.01 in Rain Light Rain
6:53 AM 77.0 °F - 55.0 °F 47% 29.70 in 10.0 mi NNE 9.2 mph - 0.01 in   Scattered Clouds
7:53 AM 70.0 °F - 62.1 °F 76% 29.79 in 10.0 mi SSW 12.7 mph 26.5 mph N/A   Clear
8:32 AM 69.8 °F - 62.6 °F 78% 29.93 in 10.0 mi SSW 16.1 mph 23.0 mph 0.00 in Rain , Thunderstorm Light Thunderstorms and Rain
8:51 AM 71.6 °F - 62.6 °F 73% 29.88 in 10.0 mi SE 3.5 mph 17.3 mph 0.01 in   Partly Cloudy
8:53 AM 71.1 °F - 62.1 °F 73% 29.80 in 10.0 mi Calm Calm - 0.01 in   Partly Cloudy
10:53 AM 79.0 °F - 60.1 °F 52% 29.89 in 10.0 mi South 4.6 mph - N/A   Scattered Clouds
11:53 AM 81.0 °F 83.0 °F 66.0 °F 60% 29.89 in 10.0 mi SE 13.8 mph 18.4 mph N/A   Clear
12:53 PM 82.0 °F 84.1 °F 66.0 °F 58% 29.88 in 10.0 mi ESE 11.5 mph 18.4 mph N/A   Clear
1:53 PM 84.0 °F 86.5 °F 66.9 °F 56% 29.86 in 10.0 mi SE 17.3 mph 26.5 mph N/A   Partly Cloudy
2:53 PM 84.9 °F 88.8 °F 69.1 °F 59% 29.84 in 10.0 mi SSE 18.4 mph 24.2 mph N/A   Partly Cloudy
4:53 PM 89.1 °F 94.1 °F 70.0 °F 53% 29.78 in 10.0 mi SE 20.7 mph 26.5 mph N/A   Partly Cloudy
5:53 PM 89.1 °F 94.1 °F 70.0 °F 53% 29.74 in 10.0 mi SE 18.4 mph 25.3 mph N/A   Clear
6:53 PM 88.0 °F 92.1 °F 69.1 °F 53% 29.70 in 10.0 mi SE 18.4 mph 25.3 mph N/A   Partly Cloudy
7:53 PM 84.9 °F 89.4 °F 70.0 °F 61% 29.72 in 10.0 mi ESE 12.7 mph - N/A   Overcast
8:53 PM 84.9 °F 87.1 °F 66.0 °F 53% 29.70 in 10.0 mi SE 15.0 mph - N/A   Scattered Clouds
9:53 PM 82.9 °F 84.6 °F 64.9 °F 54% 29.76 in 10.0 mi SE 11.5 mph - N/A   Overcast
11:29 PM 71.6 °F - 62.6 °F 73% 30.01 in 2.0 mi West 38.0 mph 51.8 mph 0.10 in Rain , Thunderstorm Rain
11:32 PM 68.0 °F - 64.4 °F 88% 30.01 in 0.8 mi WNW 28.8 mph 51.8 mph 0.25 in Rain , Thunderstorm Heavy Rain
11:36 PM 66.2 °F - 64.4 °F 94% 30.00 in 0.5 mi WNW 32.2 mph 51.8 mph 0.37 in Fog , Rain , Thunderstorm Heavy Rain
11:39 PM 66.2 °F - 64.4 °F 94% 29.98 in 0.8 mi NW 27.6 mph 49.5 mph 0.45 in Rain , Thunderstorm Heavy Rain
11:41 PM 66.2 °F - 64.4 °F 94% 29.97 in 1.0 mi NW 27.6 mph 49.5 mph 0.49 in Rain , Thunderstorm Heavy Rain
11:50 PM 66.2 °F - 64.4 °F 94% 29.98 in 3.0 mi NNW 20.7 mph 34.5 mph 0.56 in Rain , Thunderstorm Heavy Thunderstorms and Rain
11:53 PM 66.9 °F - 64.9 °F 93% 29.91 in 4.0 mi NNW 16.1 mph 28.8 mph 0.57 in Rain , Thunderstorm Heavy Thunderstorms and Rain